CZ-3C DEB, 40178

Orbit data source: Space-Track

CZ-3C DEB, 40178 is space debris in HEO originally from a launch on Sun, 31 Oct 2010 UTC launched from the Xichang Space Center, China (XSC). Debris objects in space refer to the collection of defunct objects orbiting the Earth. Examples of debris include non-operational satellites, rocket bodies, and fragments generated from explosions, collisions, or faulty payload assembly.

Loading next visibility...
Identifier
40178, 2010-057AG
Orbit
HEO
Country
Flag of CNCN / PRC
Related business
Manufacturer
CALT
Mission
Spacecraft
Bus & Motor
Unknown
Mass
Unknown
Launch date (UTC)
2010-10-31 (15 years ago)
Launch vehicle
Unknown
Launch site
Xichang Space Center, China (XSC)
Object type
Payload
Rocket body
Debris
Shape & HBR
Unknown
Radar Cross Section
Medium (>0.1 m² and <1 m²)

Expand to show TLE details & history
Last TLE update: 2 days ago

TLE from 2 days ago
0 CZ-3C DEB
1 40178U 10057AG  25258.35506301 -.00000458  00000-0 -19261-1 0  9997
2 40178  19.7494  14.1651 7214136  58.9899 357.7984  2.09771051 26403
Epoch: 2025-09-15T08:31Z
TLE epoch observation values (Epoch: 2025-09-15T08:31:17.444Z)
Latitude
12.61006°
Longitude
-69.93389°
Altitude
993.541 km
Speed
9.627 km/s
True Right ascension
03h 29m 47s
True Declination
12° 32' 22"
Sunlit
Object was in daylight at epoch
Visualization orbit readout
Latitude
Unknown
Longitude
Unknown
Altitude
Unknown
Speed
Unknown
Apparent Right ascension
Unknown
Apparent Declination
Unknown
Sunlit
N/A
Visualization observer readout
Local Sidereal Time
04:09:13
Azimuth
Unknown
Elevation
Unknown
Doppler factor
Unknown
Orbital elements
Apogee altitude
38,002.698 km
Perigee altitude
804.272 km
Semi-major axis
25,781.622 km
Eccentricity
0.72141
Inclination
19.7494°
RAAN
14.1651°
Arg. of periapsis
58.9899°
True anomaly
340.66786°
Mean anomaly
357.7984°
Eccentric anomaly
352.16053°
Mean motion
0.5243 °/min
Orbital period
686.63 mins
BSTAR
-0.019261
Loading maneuver chart data...
Computing Atmospheric mass density...
Loading historical data...
Loading historical data...
Loading historical data...
Loading historical data...
Loading historical data...
Loading historical data...
Loading historical data...

Documentation

Showing up to 5 results
|